Location: Hopville
(44.8032°N, 123.1329°W)
Time: 04:29:01
(UTC+00:00)

Cosmos 1606 Rocket - Pass Details

Date: 24 January 2021
Orbit: 604 x 631 km, 82.5° (Epoch: 26 February)

Event Time Altitude Azimuth Distance (km) Brightness Sun altitude
Rises 14:19:20 0° 181° (S) 2,843 7.1 -14.2°
Reaches altitude 10° 14:21:32 10° 180° (S) 1,945 6.3 -13.9°
Maximum altitude 14:25:48 72° 96° (E) 641 3.8 -13.1°
Drops below altitude 10° 14:30:08 10° 13° (NNE) 1,965 6.1 -12.4°
Sets 14:32:22 0° 11° (N) 2,877 6.9 -12.0°
